1484370000.23,15159,6.31,70800.8,-15.85,-17.17,-17.21,0,*65
1484370001.53,15160,6.31,70796.0,-15.85,-17.07,-17.07,0,*6A
1484370002.83,15161,6.31,70810.0,-15.85,-17.07,-17.17,0,*6A
1484370004.12,15162,6.31,70802.5,-15.85,-17.07,-17.17,0,*69
1484370005.43,15163,6.31,70816.8,-15.85,-17.07,-17.07,0,*69
1484370006.66,15164,6.31,70814.0,-15.85,-16.93,-16.93,0,*6E
1484370007.93,15165,6.31,70820.3,-15.85,-16.93,-17.03,0,*67
1484370009.2,15166,6.31,70824.8,-15.85,-17.07,-16.93,0,*60
1484370010.51,15167,6.31,70828.0,-15.85,-17.17,-17.07,0,*6C
1484370011.81,15168,6.31,70828.3,-15.85,-17.07,-17.07,0,*62
1484370013.11,15169,6.31,70830.5,-15.85,-17.07,-17.17,0,*62
1484370014.4,15170,6.31,70842.5,-15.85,-17.07,-17.17,0,*6A
1484370015.7,15171,6.31,70840.5,-15.85,-17.07,-17.03,0,*6E
1484370017.0,15172,6.31,70824.0,-15.85,-17.17,-17.17,0,*69
1484370018.31,15173,6.31,70832.0,-15.85,-17.07,-17.07,0,*68
1484370019.6,15174,6.31,70822.5,-15.85,-17.03,-17.17,0,*6A
1484370020.91,15175,6.31,70836.8,-15.85,-17.07,-17.07,0,*6E
1484370022.21,15176,6.31,70822.5,-15.85,-17.07,-17.07,0,*6D
1484370023.51,15177,6.31,70832.5,-15.85,-17.17,-17.17,0,*6C
1484370024.78,15178,6.31,70812.8,-15.85,-17.17,-17.31,0,*67
1484370026.05,15179,6.31,70832.0,-15.83,-17.03,-17.07,0,*60
1484370027.35,15180,6.31,70836.8,-15.85,-17.07,-17.17,0,*65
1484370028.64,15181,6.31,70842.0,-15.85,-17.07,-17.17,0,*64
1484370029.95,15182,6.31,70844.0,-15.85,-17.17,-17.07,0,*67
1484370031.16,15183,6.31,70826.3,-15.83,-17.31,-17.31,0,*61
1484370032.47,15184,6.31,70832.8,-15.85,-17.07,-17.07,0,*60
1484370033.73,15185,6.31,70838.0,-15.83,-17.07,-17.17,0,*66
1484370035.0,15186,6.31,70846.5,-15.85,-16.93,-17.07,0,*6E
1484370036.28,15187,6.31,70850.5,-15.83,-17.03,-17.07,0,*61
1484370037.52,15188,6.31,70862.3,-15.83,-16.93,-17.03,0,*62
1484370038.79,15189,6.31,70860.8,-15.83,-17.17,-17.07,0,*6A
1484370040.09,15190,6.31,70854.8,-15.85,-17.07,-17.17,0,*64
1484370041.39,15191,6.31,70850.5,-15.85,-17.07,-17.03,0,*60
1484370042.63,15192,6.31,70856.5,-15.83,-16.93,-17.03,0,*69
1484370043.9,15193,6.31,70862.3,-15.83,-17.07,-17.07,0,*60
1484370045.2,15194,6.31,70848.0,-15.85,-17.07,-17.17,0,*60
1484370046.47,15195,6.31,70850.5,-15.83,-17.07,-17.07,0,*66
1484370047.74,15196,6.31,70852.8,-15.83,-17.17,-17.21,0,*60
1484370049.01,15197,6.31,70850.0,-15.83,-17.07,-17.17,0,*65
1484370050.28,15198,6.31,70848.5,-15.83,-17.17,-17.21,0,*6E
1484370051.51,15199,6.31,70854.8,-15.83,-17.21,-17.31,0,*6B
1484370052.81,15200,6.31,70864.8,-15.85,-17.17,-17.17,0,*6F
1484370054.08,15201,6.31,70846.5,-15.83,-17.07,-17.17,0,*69
1484370055.34,15202,6.31,70844.8,-15.83,-17.03,-17.17,0,*6E
1484370056.61,15203,6.31,70850.3,-15.83,-17.03,-17.03,0,*6A
1484370057.91,15204,6.31,70852.8,-15.85,-17.03,-17.07,0,*6F
1484370059.19,15205,6.31,70842.8,-15.83,-17.07,-17.07,0,*6C
1484370060.46,15206,6.31,70852.3,-15.83,-17.17,-17.17,0,*6F
1484370061.76,15207,6.31,70848.8,-15.85,-17.07,-17.07,0,*68
1484370063.03,15208,6.31,70854.0,-15.83,-17.17,-17.17,0,*61
1484370064.3,15209,6.31,70850.8,-15.83,-17.03,-17.07,0,*64
1484370065.57,15210,6.31,70844.3,-15.83,-17.07,-17.17,0,*69
1484370066.87,15211,6.31,70848.3,-15.85,-17.17,-17.21,0,*6A
1484370068.14,15212,6.31,70854.3,-15.83,-17.17,-17.21,0,*6F
1484370069.41,15213,6.31,70848.3,-15.83,-17.21,-17.21,0,*6B
1484370070.67,15214,6.31,70854.5,-15.83,-17.07,-17.21,0,*68
1484370071.94,15215,6.31,70852.8,-15.83,-17.07,-17.17,0,*6C
1484370073.2,15216,6.31,70848.5,-15.83,-17.03,-17.17,0,*6B
1484370074.47,15217,6.31,70846.3,-15.83,-17.17,-17.17,0,*6F
1484370075.74,15218,6.31,70840.5,-15.83,-17.07,-17.21,0,*64
1484370077.02,15219,6.31,70844.0,-15.83,-17.07,-17.07,0,*61
1484370078.28,15220,6.31,70856.5,-15.83,-17.17,-17.17,0,*6B
1484370079.55,15221,6.31,70854.8,-15.83,-17.07,-17.17,0,*6B
1484370080.81,15222,6.31,70848.5,-15.83,-17.03,-17.17,0,*6C
1484370082.09,15223,6.38,70852.8,-15.83,-17.17,-17.07,0,*69
1484370083.36,15224,6.31,70854.0,-15.83,-17.07,-17.17,0,*6E
1484370084.63,15225,6.31,70858.0,-15.83,-17.17,-17.21,0,*6B
1484370085.89,15226,6.31,70860.0,-15.83,-17.07,-17.17,0,*6C
1484370087.16,15227,6.31,70866.8,-15.83,-17.03,-17.07,0,*68
1484370088.44,15228,6.31,70848.0,-15.83,-17.03,-17.07,0,*67
1484370089.71,15229,6.31,70834.0,-15.85,-17.31,-17.45,0,*67
1484370091.0,15230,6.31,70828.0,-15.85,-17.17,-17.17,0,*6C
1484370092.28,15231,6.31,70830.3,-15.83,-17.03,-17.07,0,*6F
1484370093.55,15232,6.31,70846.0,-15.83,-17.17,-17.17,0,*68
1484370094.79,15233,6.31,70832.3,-15.83,-17.17,-17.31,0,*6D
1484370096.05,15234,6.31,70838.3,-15.83,-17.07,-17.21,0,*6A
1484370097.33,15235,6.31,70844.0,-15.83,-17.07,-17.07,0,*6F
1484370098.59,15236,6.31,70836.8,-15.83,-17.07,-17.17,0,*6D
1484370099.84,15237,6.31,70836.5,-15.83,-17.17,-17.31,0,*69
1484370101.14,15238,6.31,70850.8,-15.85,-17.03,-17.07,0,*60
1484370102.43,15239,6.31,70842.8,-15.85,-17.03,-17.17,0,*60
1484370103.71,15240,6.31,70844.5,-15.83,-17.03,-17.07,0,*69
1484370105.0,15241,6.31,70834.3,-15.85,-17.03,-17.17,0,*6F
1484370106.27,15242,6.31,70820.5,-15.83,-17.21,-17.21,0,*6F
1484370107.54,15243,6.31,70824.5,-15.83,-17.17,-17.17,0,*6E
1484370108.8,15244,6.38,70820.3,-15.83,-17.21,-17.17,0,*6C
1484370110.07,15245,6.31,70822.8,-15.83,-17.07,-17.21,0,*6C
1484370111.34,15246,6.31,70828.0,-15.83,-17.07,-17.21,0,*6F
1484370112.6,15247,6.31,70820.8,-15.83,-17.03,-17.17,0,*6F
1484370113.9,15248,6.31,70828.8,-15.85,-17.07,-17.17,0,*62
1484370115.2,15249,6.31,70842.8,-15.85,-17.03,-17.07,0,*66
1484370116.47,15250,6.31,70840.5,-15.83,-17.17,-17.17,0,*6C
1484370117.74,15251,6.31,70830.8,-15.83,-17.03,-17.07,0,*69
1484370119.04,15252,6.31,70828.0,-15.85,-17.17,-17.17,0,*68
1484370120.32,15253,6.31,70828.0,-15.83,-17.17,-17.07,0,*6E
1484370121.59,15254,6.31,70840.0,-15.83,-17.07,-17.03,0,*6C
1484370122.86,15255,6.31,70826.5,-15.83,-17.07,-17.07,0,*69
1484370124.13,15256,6.31,70824.8,-15.83,-17.03,-17.17,0,*6F
1484370125.42,15257,6.31,70840.3,-15.85,-17.07,-17.17,0,*6C
1484370126.69,15258,6.31,70840.0,-15.81,-16.97,-17.11,0,*69
1484370127.96,15259,6.31,70834.8,-15.83,-17.07,-17.17,0,*64
1484370129.23,15260,6.31,70842.0,-15.83,-17.17,-17.07,0,*6E
1484370130.53,15261,6.38,70848.8,-15.85,-17.03,-17.17,0,*6D
1484370131.79,15262,6.31,70836.8,-15.83,-17.03,-17.17,0,*68
1484370133.06,15263,6.31,70842.5,-15.83,-17.07,-17.17,0,*6D
1484370134.29,15264,6.31,70844.3,-15.85,-16.93,-16.93,0,*6D
1484370135.56,15265,6.31,70850.8,-15.83,-17.07,-17.17,0,*6B
1484370136.83,15266,6.31,70846.8,-15.83,-17.07,-17.21,0,*6D
1484370138.1,15267,6.31,70870.8,-15.83,-17.07,-17.07,0,*68
1484370139.37,15268,6.31,70838.3,-15.83,-17.03,-17.17,0,*62
1484370140.67,15269,6.31,70830.8,-15.85,-17.17,-17.21,0,*65
1484370141.94,15270,6.31,70832.5,-15.85,-16.93,-17.07,0,*64
1484370143.21,15271,6.31,70798.5,-15.83,-17.07,-17.17,0,*6E
1484370144.51,15272,6.31,70800.5,-15.85,-17.07,-17.07,0,*6A
1484370145.78,15273,6.31,70804.0,-15.83,-17.03,-17.03,0,*6D
1484370147.06,15274,6.31,70798.8,-15.83,-17.17,-17.07,0,*6B
1484370148.32,15275,6.31,70814.8,-15.83,-17.17,-17.17,0,*6B
1484370149.59,15276,6.31,70824.0,-15.83,-17.07,-17.17,0,*69
1484370150.86,15277,6.31,70818.0,-15.83,-17.07,-17.17,0,*68
1484370152.13,15278,6.31,70812.0,-15.83,-17.17,-17.07,0,*67
1484370153.41,15279,6.31,70832.5,-15.83,-17.07,-17.07,0,*67
1484370154.68,15280,6.31,70808.8,-15.85,-17.17,-17.31,0,*63
1484370155.94,15281,6.38,70816.0,-15.83,-17.03,-17.17,0,*65
1484370157.21,15282,6.31,70830.0,-15.83,-17.07,-17.21,0,*67
1484370158.48,15283,6.31,70820.0,-15.83,-17.17,-17.21,0,*67
1484370159.78,15284,6.31,70830.8,-15.85,-17.17,-17.17,0,*63
1484370161.02,15285,6.31,70832.3,-15.83,-17.21,-17.31,0,*65
1484370162.26,15286,6.31,70826.3,-15.83,-17.21,-17.35,0,*62
1484370163.53,15287,6.31,70798.3,-15.83,-17.59,-17.63,0,*6F
1484370164.76,15288,6.31,70812.3,-15.83,-17.21,-17.31,0,*68
1484370166.03,15289,6.31,70826.0,-15.83,-17.17,-17.21,0,*6D
1484370167.28,15290,6.31,70804.0,-15.83,-17.17,-17.31,0,*64
1484370168.55,15291,6.38,70822.3,-15.83,-17.17,-17.21,0,*64
1484370169.78,15292,6.38,70816.0,-15.83,-17.21,-17.31,0,*63
1484370170.99,15293,6.31,70814.5,-15.83,-17.31,-17.31,0,*63
1484370172.23,15294,6.31,70812.0,-15.83,-17.17,-17.31,0,*60
1484370173.53,15295,6.31,70806.0,-15.85,-17.21,-17.21,0,*63
1484370174.75,15296,6.31,70808.3,-15.83,-17.31,-17.35,0,*62
1484370175.98,15297,6.31,70810.0,-15.83,-17.21,-17.31,0,*66
1484370177.25,15298,6.31,70812.8,-15.83,-17.17,-17.21,0,*6D
1484370178.55,15299,6.31,70820.0,-15.85,-17.07,-17.21,0,*6B
1484370179.85,15300,6.38,70820.5,-15.85,-17.21,-17.21,0,*6E
1484370181.11,15301,6.38,70828.5,-15.83,-17.07,-17.21,0,*6D
1484370182.36,15302,6.31,70830.0,-15.83,-16.93,-17.07,0,*66
1484370183.66,15303,6.31,70820.5,-15.85,-17.07,-17.17,0,*6C
1484370184.93,15304,6.31,70830.3,-15.83,-17.07,-17.07,0,*6C
1484370186.23,15305,6.31,70828.3,-15.85,-17.17,-17.17,0,*6B
1484370187.52,15306,6.31,70826.8,-15.85,-17.07,-17.17,0,*69
1484370188.79,15307,6.31,70826.8,-15.83,-17.07,-17.21,0,*6B
1484370190.06,15308,6.31,70822.8,-15.83,-17.07,-17.21,0,*64
1484370191.32,15309,6.31,70810.0,-15.83,-17.03,-17.17,0,*64
1484370192.59,15310,6.31,70816.8,-15.83,-17.07,-17.17,0,*68
1484370193.88,15311,6.31,70814.5,-15.85,-17.07,-17.21,0,*6A
1484370195.15,15312,6.31,70820.3,-15.85,-17.21,-17.31,0,*6C
1484370196.42,15313,6.31,70812.3,-15.85,-17.17,-17.31,0,*68
1484370197.66,15314,6.38,70830.8,-15.83,-17.17,-17.31,0,*69
1484370198.93,15315,6.31,70820.3,-15.85,-17.21,-17.31,0,*6B
1484370200.21,15316,6.31,70802.8,-15.83,-17.17,-17.07,0,*6E
1484370201.48,15317,6.31,70796.8,-15.83,-17.17,-17.17,0,*6E
1484370202.75,15318,6.31,70804.0,-15.83,-17.17,-17.17,0,*61
1484370204.04,15319,6.31,70800.8,-15.85,-17.07,-17.17,0,*67
1484370205.34,15320,6.38,70816.0,-15.85,-17.17,-17.17,0,*6C
1484370206.61,15321,6.31,70786.3,-15.83,-17.21,-17.21,0,*6B
1484370207.87,15322,6.31,70794.8,-15.83,-17.17,-17.17,0,*68
1484370209.18,15323,6.31,70800.3,-15.85,-17.17,-17.07,0,*6E
1484370210.45,15324,6.31,70810.5,-15.83,-17.17,-17.21,0,*6B
1484370211.73,15325,6.31,70806.5,-15.83,-17.17,-17.07,0,*6E
1484370213.0,15326,6.31,70814.8,-15.83,-17.03,-17.07,0,*68
1484370214.27,15327,6.38,70812.5,-15.83,-17.03,-17.17,0,*68
1484370215.53,15328,6.38,70804.5,-15.83,-17.07,-17.17,0,*63
1484370216.8,15329,6.31,70820.3,-15.83,-17.17,-17.17,0,*63
1484370218.07,15330,6.38,70814.0,-15.85,-17.07,-17.31,0,*68
1484370219.31,15331,6.38,70818.8,-15.83,-17.21,-17.31,0,*6B
1484370220.55,15332,6.31,70824.0,-15.83,-17.21,-17.31,0,*68
1484370221.79,15333,6.31,70816.3,-15.83,-17.21,-17.35,0,*6D
1484370223.06,15334,6.38,70830.8,-15.83,-17.21,-17.17,0,*6A
1484370224.33,15335,6.31,70844.5,-15.83,-17.03,-17.07,0,*6A
1484370225.61,15336,6.31,70844.3,-15.83,-17.07,-17.07,0,*6D
1484370226.87,15337,6.38,70856.5,-15.83,-17.03,-17.03,0,*6C
1484370228.12,15338,6.31,70840.5,-15.83,-16.93,-17.07,0,*6F
1484370229.39,15339,6.38,70836.0,-15.83,-17.07,-17.07,0,*62
1484370230.66,15340,6.31,70826.0,-15.83,-17.07,-17.17,0,*6D
1484370231.93,15341,6.31,70828.0,-15.83,-17.03,-17.07,0,*69
1484370233.21,15342,6.31,70824.8,-15.83,-17.03,-17.07,0,*6A
1484370234.47,15343,6.38,70816.8,-15.83,-17.03,-17.17,0,*6A
1484370235.71,15344,6.31,70830.0,-15.83,-16.93,-17.03,0,*60
1484370236.97,15345,6.31,70820.8,-15.83,-17.07,-17.17,0,*68
1484370238.24,15346,6.31,70818.5,-15.83,-17.17,-17.17,0,*6A
1484370239.48,15347,6.31,70818.3,-15.83,-17.03,-16.93,0,*63
1484370240.75,15348,6.31,70822.8,-15.83,-17.07,-17.03,0,*60
1484370242.02,15349,6.31,70832.0,-15.83,-17.17,-17.03,0,*60
1484370243.3,15350,6.31,70816.3,-15.83,-17.17,-17.07,0,*6C
1484370244.57,15351,6.38,70820.5,-15.83,-17.07,-17.07,0,*6C
1484370245.84,15352,6.38,70832.0,-15.83,-17.07,-17.03,0,*6B
1484370247.08,15353,6.31,70838.8,-15.83,-16.93,-17.03,0,*66
1484370248.35,15354,6.31,70856.8,-15.81,-16.89,-17.11,0,*6B
1484370249.61,15355,6.38,70878.0,-15.81,-17.41,-17.31,0,*6D
1484370250.91,15356,6.31,70798.5,-15.81,-17.59,-17.59,0,*69
1484370252.18,15357,6.31,70814.3,-15.83,-17.45,-17.59,0,*67
1484370253.41,15358,6.31,70816.3,-15.83,-17.21,-17.31,0,*64
1484370254.68,15359,6.31,70842.3,-15.83,-17.21,-17.21,0,*64
1484370255.92,15360,6.31,70806.5,-15.83,-17.31,-17.21,0,*6F
1484370257.22,15361,6.38,70810.0,-15.85,-17.07,-17.07,0,*69
1484370258.49,15362,6.31,70820.5,-15.83,-17.07,-17.17,0,*6D
1484370259.79,15363,6.31,70814.5,-15.85,-17.07,-17.07,0,*6B
1484370261.03,15364,6.38,70826.0,-15.83,-16.93,-17.17,0,*67
1484370262.3,15365,6.31,70830.0,-15.83,-17.03,-17.07,0,*6F
1484370263.57,15366,6.31,70818.3,-15.83,-17.07,-17.03,0,*6C
1484370264.84,15367,6.31,70828.3,-15.83,-17.03,-17.17,0,*6C
1484370266.1,15368,6.38,70852.8,-15.83,-17.17,-17.17,0,*66
1484370267.34,15369,6.31,70782.8,-15.83,-17.31,-17.21,0,*66
1484370268.61,15370,6.38,70790.8,-15.83,-17.59,-17.59,0,*6F
1484370269.85,15371,6.38,70804.3,-15.85,-17.35,-17.49,0,*63
1484370271.15,15372,6.31,70724.8,-15.85,-17.21,-17.21,0,*6B
1484370272.43,15373,6.31,70728.0,-15.83,-17.17,-17.07,0,*6D
1484370273.7,15374,6.38,70792.5,-15.85,-17.17,-17.31,0,*69
1484370274.98,15375,6.31,70820.0,-15.83,-17.17,-17.07,0,*6B
1484370276.24,15376,6.31,70806.3,-15.85,-17.31,-17.21,0,*6E
1484370277.51,15377,6.31,70782.8,-15.83,-17.21,-17.21,0,*68
1484370278.78,15378,6.31,70782.5,-15.83,-17.07,-17.21,0,*63
1484370280.08,15379,6.31,70812.0,-15.85,-17.03,-17.17,0,*65
1484370281.31,15380,6.38,70802.8,-15.83,-17.07,-17.31,0,*65
1484370282.52,15381,6.31,70798.0,-15.83,-17.35,-17.31,0,*65
1484370283.77,15382,6.31,70752.5,-15.83,-17.21,-17.35,0,*67
1484370285.04,15383,6.31,70786.3,-15.85,-17.31,-17.21,0,*64
1484370286.25,15384,6.31,70772.3,-15.83,-17.31,-17.31,0,*64
1484370287.51,15385,6.31,70784.8,-15.85,-17.21,-17.31,0,*62
1484370288.82,15386,6.38,70796.0,-15.85,-17.21,-17.07,0,*64
1484370290.12,15387,6.31,70788.0,-15.85,-17.17,-17.17,0,*61
1484370291.37,15388,6.31,70782.5,-15.85,-17.35,-17.35,0,*6E
1484370292.67,15389,6.38,70774.5,-15.85,-17.45,-17.45,0,*6F
1484370293.94,15390,6.31,70788.5,-15.85,-17.31,-17.45,0,*64
1484370295.24,15391,6.38,70778.5,-15.85,-17.59,-17.59,0,*66
1484370296.53,15392,6.38,70782.3,-15.85,-17.59,-17.59,0,*65
1484370297.82,15393,6.38,70762.3,-15.89,-17.55,-17.63,0,*6D
1484370299.11,15394,6.31,70732.0,-15.85,-17.59,-17.59,0,*63
1484370300.4,15395,6.38,70678.8,-15.85,-17.63,-17.63,0,*62
1484370301.67,15396,6.31,70726.8,-15.85,-17.59,-17.49,0,*60
1484370302.96,15397,6.38,70752.5,-15.89,-17.21,-17.21,0,*6C
1484370304.22,15398,6.38,70744.3,-15.89,-17.49,-17.63,0,*6B
1484370305.48,15399,6.31,70784.3,-15.89,-17.55,-17.49,0,*6F
1484370306.75,15400,6.31,70792.0,-15.89,-17.41,-17.49,0,*6D
1484370308.04,15401,6.31,70784.0,-15.89,-17.41,-17.41,0,*64
1484370309.33,15402,6.31,70774.0,-15.89,-17.25,-17.25,0,*67
1484370310.59,15403,6.31,70760.5,-15.91,-17.25,-17.25,0,*6F
1484370311.84,15404,6.31,70778.0,-15.91,-17.25,-17.35,0,*69
1484370313.11,15405,6.31,70756.5,-15.91,-17.41,-17.25,0,*6B
1484370314.33,15406,6.31,70758.8,-15.91,-17.49,-17.49,0,*6A
1484370315.58,15407,6.31,70772.3,-15.89,-17.35,-17.35,0,*62
1484370316.86,15408,6.38,70800.5,-15.89,-17.41,-17.25,0,*6F
1484370318.13,15409,6.31,70750.0,-15.89,-17.35,-17.25,0,*6D
1484370319.42,15410,6.31,70798.0,-15.89,-17.25,-17.25,0,*64
1484370320.71,15411,6.31,70814.0,-15.85,-17.21,-17.21,0,*69
1484370321.94,15412,6.38,70786.8,-15.91,-17.49,-17.35,0,*64
1484370323.22,15413,6.31,70790.8,-15.89,-17.55,-17.55,0,*67
1484370324.52,15414,6.31,70792.8,-15.89,-17.41,-17.41,0,*60
1484370325.79,15415,6.31,70782.0,-15.91,-17.41,-17.41,0,*68
1484370327.04,15416,6.31,70802.3,-15.91,-17.21,-17.35,0,*6E
1484370328.33,15417,6.31,70828.8,-15.89,-17.11,-17.11,0,*63
1484370329.6,15418,6.31,70826.5,-15.91,-17.21,-17.11,0,*66
1484370330.88,15419,6.31,70822.0,-15.89,-17.11,-17.11,0,*6D
1484370332.17,15420,6.38,70826.8,-15.89,-17.11,-17.11,0,*67
1484370333.47,15421,6.31,70826.0,-15.89,-17.07,-17.07,0,*66
1484370334.75,15422,6.38,70824.0,-15.89,-17.11,-17.11,0,*65
1484370336.04,15423,6.31,70830.8,-15.89,-17.07,-17.11,0,*63
1484370337.33,15424,6.31,70834.3,-15.89,-17.11,-17.21,0,*60
1484370338.62,15425,6.31,70850.8,-15.89,-17.21,-17.21,0,*62
1484370339.91,15426,6.38,70850.8,-15.89,-17.21,-17.11,0,*62
1484370341.16,15427,6.31,70830.5,-15.91,-17.35,-17.41,0,*6A
1484370342.42,15428,6.31,70848.8,-15.91,-17.25,-17.25,0,*66
1484370343.7,15429,6.31,70844.3,-15.89,-17.41,-17.35,0,*6D
1484370344.99,15430,6.31,70852.5,-15.89,-17.41,-17.41,0,*66
1484370346.28,15431,6.38,70848.0,-15.89,-17.21,-17.25,0,*63
1484370347.55,15432,6.31,70866.0,-15.91,-17.11,-17.07,0,*6A
1484370348.82,15433,6.31,70852.8,-15.91,-17.21,-17.11,0,*6F
1484370350.09,15434,6.31,70848.5,-15.89,-17.25,-17.35,0,*63
1484370351.36,15435,6.31,70866.3,-15.89,-17.25,-17.35,0,*62
1484370352.63,15436,6.31,70866.5,-15.89,-17.25,-17.35,0,*61
1484370353.92,15437,6.31,70870.3,-15.89,-17.21,-17.25,0,*65
1484370355.21,15438,6.31,70866.8,-15.89,-17.21,-17.11,0,*6D
1484370356.5,15439,6.38,70866.5,-15.89,-17.21,-17.21,0,*6F
1484370357.79,15440,6.31,70816.5,-15.89,-17.41,-17.41,0,*61
1484370359.06,15441,6.31,70830.3,-15.85,-17.49,-17.59,0,*6D
1484370360.35,15442,6.38,70844.5,-15.89,-17.25,-17.25,0,*63
1484370361.64,15443,6.31,70824.0,-15.89,-17.11,-17.21,0,*61
1484370362.92,15444,6.38,70802.3,-15.89,-17.11,-17.11,0,*65
1484370364.21,15445,6.31,70820.0,-15.89,-17.21,-17.21,0,*64
1484370365.5,15446,6.31,70826.0,-15.89,-17.07,-17.11,0,*60
1484370366.8,15447,6.31,70820.8,-15.89,-17.11,-17.07,0,*61
1484370368.09,15448,6.31,70820.3,-15.85,-17.03,-17.17,0,*60
1484370369.36,15449,6.31,70812.8,-15.85,-16.93,-17.07,0,*68
1484370370.67,15450,6.38,70822.3,-15.85,-17.07,-17.07,0,*6C
1484370371.98,15451,6.31,70812.5,-15.85,-17.17,-17.07,0,*6C
1484370373.27,15452,6.38,70822.8,-15.85,-17.17,-17.17,0,*6E
1484370374.57,15453,6.38,70830.3,-15.85,-17.03,-17.03,0,*6F
1484370375.87,15454,6.31,70838.8,-15.89,-17.07,-17.07,0,*64
1484370377.17,15455,6.31,70842.3,-15.89,-17.07,-17.07,0,*65
1484370378.44,15456,6.31,70850.8,-15.89,-16.97,-17.07,0,*6E
1484370379.74,15457,6.38,70842.0,-15.85,-17.07,-17.21,0,*6F
1484370381.03,15458,6.31,70852.3,-15.85,-17.03,-17.03,0,*64
1484370382.27,15459,6.38,70846.5,-15.83,-16.93,-17.17,0,*6E
1484370383.57,15460,6.31,70824.5,-15.85,-17.03,-17.03,0,*6F
1484370384.84,15461,6.31,70832.3,-15.83,-17.07,-17.07,0,*68
1484370386.12,15462,6.31,70850.5,-15.83,-17.07,-17.07,0,*6B
1484370387.42,15463,6.38,70840.3,-15.85,-17.07,-17.07,0,*6C
1484370388.72,15464,6.38,70838.5,-15.85,-17.07,-17.03,0,*6F
1484370389.96,15465,6.38,70832.5,-15.83,-16.93,-17.07,0,*60
1484370391.24,15466,6.38,70840.5,-15.83,-17.03,-17.07,0,*6B
1484370392.53,15467,6.38,70850.3,-15.85,-17.03,-17.17,0,*6D
1484370393.8,15468,6.38,70840.5,-15.83,-17.21,-17.17,0,*64
1484370395.1,15469,6.38,70850.5,-15.85,-17.07,-17.07,0,*66
1484370396.4,15470,6.38,70846.8,-15.85,-17.03,-17.21,0,*6E
1484370397.7,15471,6.38,70858.0,-15.85,-17.17,-17.17,0,*6F
1484370398.97,15472,6.31,70852.8,-15.85,-16.93,-17.07,0,*60
1484370400.27,15473,6.31,70852.5,-15.85,-17.03,-17.17,0,*68
1484370401.56,15474,6.38,70854.0,-15.85,-17.03,-17.03,0,*6A
1484370402.83,15475,6.31,70862.3,-15.85,-16.93,-17.03,0,*63
1484370404.11,15476,6.31,70860.0,-15.85,-16.93,-17.07,0,*64
1484370405.4,15477,6.31,70866.8,-15.85,-17.03,-17.03,0,*69
1484370406.71,15478,6.38,70860.5,-15.85,-17.03,-17.07,0,*62
1484370407.98,15479,6.31,70862.3,-15.83,-17.07,-17.03,0,*65
1484370409.28,15480,6.31,70860.5,-15.85,-17.03,-17.07,0,*65
1484370410.52,15481,6.31,70852.5,-15.83,-17.03,-16.93,0,*6E
1484370411.79,15482,6.38,70858.5,-15.85,-16.93,-17.03,0,*6B
1484370413.09,15483,6.38,70848.0,-15.85,-17.03,-17.07,0,*66
1484370414.39,15484,6.31,70846.5,-15.85,-17.03,-17.17,0,*60
1484370415.69,15485,6.31,70832.0,-15.85,-17.17,-17.21,0,*61
1484370416.98,15486,6.31,70836.8,-15.85,-17.21,-17.21,0,*67
1484370418.28,15487,6.31,70838.0,-15.85,-17.07,-17.21,0,*62
1484370419.56,15488,6.38,70844.0,-15.83,-17.03,-17.07,0,*6B
1484370420.83,15489,6.38,70848.5,-15.83,-17.17,-17.07,0,*6F
1484370422.1,15490,6.31,70836.8,-15.83,-17.07,-17.17,0,*67
1484370423.4,15491,6.38,70836.3,-15.85,-17.07,-17.21,0,*65
1484370424.69,15492,6.31,70840.3,-15.85,-17.03,-17.03,0,*62
1484370426.0,15493,6.38,70850.5,-15.85,-17.17,-17.07,0,*62
1484370427.31,15494,6.31,70840.8,-15.85,-17.07,-17.07,0,*64
1484370428.57,15495,6.31,70846.5,-15.83,-17.07,-17.17,0,*62
1484370429.81,15496,6.38,70854.3,-15.83,-17.07,-16.93,0,*6C
1484370431.08,15497,6.38,70842.3,-15.83,-17.03,-17.07,0,*65
1484370432.38,15498,6.31,70838.8,-15.85,-17.07,-17.17,0,*69
1484370433.62,15499,6.31,70840.5,-15.83,-17.21,-17.31,0,*6E
1484370434.88,15500,6.38,70842.8,-15.83,-17.21,-17.21,0,*6E
1484370436.12,15501,6.38,70838.8,-15.83,-17.21,-17.31,0,*6E
1484370437.39,15502,6.38,70842.0,-15.83,-17.17,-17.17,0,*6C
1484370438.66,15503,6.38,70846.8,-15.83,-17.17,-17.21,0,*68
1484370439.9,15504,6.31,70848.0,-15.83,-17.31,-17.21,0,*6B
1484370441.17,15505,6.31,70850.3,-15.85,-17.17,-17.31,0,*69
1484370442.43,15506,6.38,70848.3,-15.85,-17.21,-17.31,0,*6F
1484370443.7,15507,6.31,70848.0,-15.85,-17.21,-17.31,0,*6E
1484370444.97,15508,6.38,70848.5,-15.83,-17.17,-17.21,0,*63
1484370446.28,15509,6.31,70846.5,-15.85,-17.07,-17.07,0,*61
1484370447.55,15510,6.31,70838.5,-15.83,-17.17,-17.17,0,*6F
1484370448.81,15511,6.38,70846.8,-15.85,-17.07,-17.31,0,*6D
1484370450.11,15512,6.31,70848.0,-15.85,-17.07,-17.17,0,*6A
1484370451.38,15513,6.31,70852.5,-15.83,-17.03,-17.03,0,*6C
1484370452.67,15514,6.38,70854.5,-15.85,-17.03,-17.17,0,*68
1484370453.97,15515,6.38,70840.8,-15.85,-17.03,-17.17,0,*69
1484370455.24,15516,6.38,70832.5,-15.83,-17.03,-17.03,0,*69
1484370456.5,15517,6.38,70836.0,-15.83,-17.03,-17.03,0,*68
1484370457.75,15518,6.38,70842.0,-15.83,-16.93,-17.07,0,*6B
1484370458.98,15519,6.38,70842.8,-15.83,-16.93,-17.03,0,*6E
1484370460.28,15520,6.38,70846.3,-15.85,-17.03,-17.17,0,*6F
1484370461.58,15521,6.38,70854.8,-15.85,-17.07,-17.17,0,*6A
1484370462.87,15522,6.31,70842.8,-15.85,-17.07,-17.17,0,*69
1484370464.14,15523,6.38,70852.3,-15.83,-17.03,-17.07,0,*6B
1484370465.45,15524,6.38,70852.8,-15.85,-17.03,-17.07,0,*6A
1484370466.72,15525,6.38,70852.3,-15.85,-16.93,-17.03,0,*67
1484370467.92,15526,6.38,70848.0,-15.83,-16.93,-16.93,0,*6A
1484370469.16,15527,6.38,70850.8,-15.83,-16.93,-17.03,0,*63
1484370470.4,15528,6.38,70856.0,-15.83,-16.93,-17.17,0,*69
1484370471.66,15529,6.38,70852.8,-15.83,-17.07,-17.03,0,*61
1484370472.96,15530,6.38,70850.5,-15.85,-17.03,-17.03,0,*6B
1484370474.21,15531,6.38,70854.3,-15.83,-16.93,-17.07,0,*60
1484370475.45,15532,6.38,70852.5,-15.83,-16.93,-17.03,0,*67
1484370476.72,15533,6.38,70854.8,-15.83,-17.03,-17.07,0,*6A
1484370477.98,15534,6.38,70852.3,-15.83,-17.03,-17.17,0,*6C
1484370479.28,15535,6.38,70858.3,-15.85,-17.07,-17.17,0,*6F
1484370480.55,15536,6.38,70862.3,-15.83,-17.03,-17.07,0,*6F
1484370481.82,15537,6.38,70876.5,-15.83,-17.03,-17.03,0,*6A
1484370483.09,15538,6.38,70844.5,-15.83,-17.07,-17.17,0,*64
1484370484.35,15539,6.38,70842.0,-15.83,-17.07,-17.17,0,*65
1484370485.59,15540,6.38,70840.0,-15.83,-16.93,-17.03,0,*62
1484370486.86,15541,6.38,70836.8,-15.83,-17.03,-17.03,0,*6B
1484370488.13,15542,6.38,70848.0,-15.83,-17.03,-17.03,0,*68
1484370489.4,15543,6.38,70856.8,-15.83,-17.17,-17.21,0,*6C
1484370490.69,15544,6.38,70842.3,-15.81,-17.17,-17.25,0,*6D
1484370491.91,15545,6.38,70834.5,-15.83,-17.35,-17.35,0,*6F
1484370493.18,15546,6.31,70836.8,-15.83,-17.07,-17.21,0,*68
1484370494.42,15547,6.38,70834.3,-15.83,-17.31,-17.21,0,*6C
1484370495.69,15548,6.38,70838.8,-15.85,-17.35,-17.45,0,*63
1484370496.93,15549,6.38,70820.5,-15.83,-17.31,-17.45,0,*60
1484370498.17,15550,6.38,70820.0,-15.83,-17.21,-17.49,0,*65
1484370499.39,15551,6.38,70828.8,-15.83,-17.35,-17.35,0,*6A
1484370500.64,15552,6.38,70822.8,-15.85,-17.31,-17.35,0,*6B
1484370501.89,15553,6.38,70810.5,-15.83,-17.35,-17.45,0,*6F
1484370503.09,15554,6.38,70800.8,-15.83,-17.31,-17.31,0,*6F
1484370504.36,15555,6.38,70790.0,-15.85,-17.21,-17.31,0,*69
1484370505.63,15556,6.38,70798.8,-15.85,-17.31,-17.21,0,*6A
1484370506.87,15557,6.38,70794.5,-15.85,-17.35,-17.31,0,*6E
1484370508.17,15558,6.38,70800.3,-15.85,-17.45,-17.45,0,*65